STARLINK-11696 [DTC]

Last updated on Thu Jul 03 2025 00:02:06 GMT+0000 (Coordinated Universal Time)

1 64324U 25124H 25183.19513246 .00083127 00000+0 47444-3 0 9999 2 64324 42.9998 99.5236 0001912 270.8597 89.2054 15.77923970 3435
UTC large
Height (km)
Speed (km/s)
/
Latitude / Longitude
Inclination (degrees)
Orbital Period (minutes)
Azimuth
Elevation
Range (km)
Doppler Factor

Next 0 passes for location: London (51.5072 / 0.1276)

Sorry there are no passes over London.